Starlink 31909

operational
NORAD ID: 59663 Int'l Des: 2024-084 Owner: SPXS Country: US Constellation: starlink
LEOCIRCULAR

About Starlink 31909

Description loading...

Live Position

Loading 3D Globe...

Upcoming Passes

Altitude History

Altitude vs Time

uPlot chart will show altitude changes over time

Two-Line Element Set

1 59663U 24084K 25259.47260931 -.00002559 00000-0 -83584-4 0 9997
2 59663 43.0003 305.3234 0001069 264.1269 95.9460 15.27553026 77730
Epoch: Sep 16, 2025 • Age: 21 hours

Current Status

Altitude 488.4 km
Velocity 7.62 km/s
Sub-Earth Point -23.76°S, 21.49°E
Launch Date May 6, 2024
Age 1.3 years
Type internet

Technical Details

Classification Payload
Mass 730.00 kg
Dry Mass 700.00 kg
Total Mass 730.00 kg
Length 0.30 m
Diameter 4.10 m
Span 29.00 m
Shape Box + pan
Manufacturer SPXS
Bus Type Starlink V2M
Phase Status In Orbit
Owner/State SPXS/US

Large Constellations

Loading constellations...